Location: Seasalter
(51.3333°N, 1.0167°E)
Time: 19:41:42
(UTC+00:00)

Cosmos 304 Rocket - Pass Details

Date: 26 September 2023
Orbit: 677 x 682 km, 74.0° (Epoch: 08 December)

Event Time Altitude Azimuth Distance (km) Brightness Sun altitude
Exits shadow 02:47:14 70° 63° (ENE) 731 3.9 -27.2°
Drops below altitude 10° 02:51:37 10° 27° (NNE) 2,139 7.1 -26.7°
Sets 02:53:56 0° 26° (NNE) 3,060 8.1 -26.4°
